Skip Navigation Links
NOAA logo - Click to go to the NOAA homepage
NOAA's National Weather Service
Alaska Aviation Weather Unit
  NWS logo - Click to go to the NWS homepage
Left Navbar Graphic     21 AKDT = 05 GMT

   
NOAA is celebrating 200 years of science, service, and stewardship. Visit the NOAA 200th celebration Web site to learn more.
USA.gov is the U.S. Government's official Web portal to all Federal, state and local government Web resources and services.
Facebook
NWS on Facebook

Important Change Regarding the AAWU Web Presence

 

Over the last several months, the AAWU has been working to navigate its webpages to a nationally supported server. Security, as well as other needs, have necessitated the change.  In the process, we have made an effort to enhance the functionality of our website, as well as some of our products. As of June 27, 2017, aawu.arh.noaa.gov will be discontinued. The new AAWU web address is weather.gov/aawu. It is now live and will run in-parallel with the old site until it is discontinued. Please send any feedback or questions regarding the new webpages to nws.ar.aawu.webauthors@noaa.gov.  Thank you for your patience during this time of transition.
AAWU Home :: Display TAF Add Bookmark
TAF PAWG 260159Z 2602/2624 VRB03KT P6SM -SHRA FEW006 BKN040 OVC060
      TEMPO 2602/2604 6SM -SHRA BR SCT006 BKN030 OVC040
     FM260900 28005KT P6SM VCSH FEW025 OVC035
      AMD NOT SKED=
METAR PAWG 252350Z 00000KT 7SM -RA FEW005 BKN030 OVC060 11/10 A3002=

METAR PAWG 260050Z 32003KT 7SM -RA FEW005 BKN030 OVC060 11/10 A3001=

METAR PAWG 260150Z 30003KT 8SM -RA FEW006 BKN040 OVC060 11/10 A3000=

METAR PAWG 260250Z 28003KT 8SM -RA FEW006 BKN040 OVC060 11/10 A3000=

METAR PAWG 260350Z 27004KT 3SM -RA BR FEW006 BKN040 OVC060 11/10
     A3000=

METAR PAWG 260450Z 24004KT 4SM -RA BR FEW005 BKN030 OVC060 11/09
     A3000=


NOAA's National Weather Service
Alaska Aviation Weather Unit
6930 Sand Lake Road
Anchorage, AK 99502-1845
Disclaimer
Credits
Glossary
Privacy Policy
About Us
Career Opportunities
Contact AAWU Internet Services Site last modified: April, 17th 2012